EW2889 Weather Reports


time (UTC)temp
C
wind
direction
speed
KPH
gust
KPH
rain 1hr
cm
rain 24hr
cm
rain mn
cm
humidity
%
barometer
mb
20240518191607 16 127 0.0 12.9 0.00 0.00 0.00 96 1013.2
20240518190050 16 40 0.0 8.0 0.00 0.00 0.00 96 1013.3
20240518184549 16 86 3.2 9.7 0.00 0.00 0.00 96 1013.2
20240518183106 16 29 3.2 11.3 0.00 0.00 0.00 96 1013.3
20240518181548 16 76 0.0 8.0 0.00 0.00 0.00 97 1013.3
20240518180052 16 103 0.0 8.0 0.00 0.00 0.00 97 1013.5
20240518174547 16 60 3.2 9.7 0.00 0.00 0.00 96 1013.5
20240518173046 16 95 0.0 6.4 0.00 0.00 0.00 97 1013.7
20240518171545 16 90 0.0 8.0 0.00 0.00 0.00 97 1014.0
20240518170047 16 30 0.0 6.4 0.00 0.00 0.00 96 1014.1
20240518164544 16 82 0.0 9.7 0.00 0.00 0.00 96 1014.0
20240518163054 16 133 0.0 11.3 0.00 0.00 0.00 97 1013.7
20240518161541 15 98 0.0 8.0 0.00 0.00 0.00 97 1013.5
20240518160042 15 120 1.6 9.7 0.00 0.00 0.00 97 1013.5
20240518154541 15 60 1.6 11.3 0.00 0.00 0.00 97 1013.6
20240518153038 15 78 1.6 8.0 0.00 0.00 0.00 96 1013.9
20240518151547 15 135 1.6 9.7 0.00 0.00 0.00 96 1013.9
20240518150039 15 257 1.6 11.3 0.00 0.00 0.00 96 1013.9
20240518144536 15 64 3.2 9.7 0.00 0.00 0.00 97 1013.4
20240518143036 15 141 0.0 6.4 0.00 0.00 0.00 96 1013.7
20240518141535 15 84 3.2 16.1 0.00 0.00 0.00 96 1013.9
20240518140036 15 136 1.6 9.7 0.00 0.00 0.00 97 1013.8
20240518134533 15 96 1.6 6.4 0.00 0.00 0.00 97 1014.2
20240518133032 15 98 1.6 8.0 0.00 0.00 0.00 96 1014.3
20240518131532 15 63 0.0 8.0 0.00 0.00 0.00 96 1014.3
20240518130035 15 87 4.8 9.7 0.00 0.00 0.00 96 1014.2
20240518124531 15 79 0.0 6.4 0.00 0.00 0.00 96 1014.6
20240518123030 15 94 0.0 4.8 0.00 0.00 0.00 96 1014.5
20240518121539 15 128 0.0 4.8 0.00 0.00 0.00 96 1014.6
20240518120029 15 184 0.0 6.4 0.00 0.00 0.00 96 1014.5
20240518114534 15 60 0.0 3.2 0.00 0.00 0.00 96 1014.0
20240518113030 15 94 3.2 8.0 0.00 0.00 0.00 96 1013.6
20240518111527 15 63 3.2 8.0 0.00 0.00 0.00 95 1013.3
20240518110030 15 86 1.6 9.7 0.00 0.00 0.00 95 1013.2
20240518104531 15 79 0.0 6.4 0.00 0.00 0.00 95 1013.6
20240518103025 15 85 0.0 0.0 0.00 0.00 0.00 95 1013.3
20240518101527 15 98 1.6 8.0 0.00 0.00 0.00 95 1013.0
20240518100032 15 84 1.6 11.3 0.00 0.00 0.00 95 1012.9
20240518094522 15 85 0.0 9.7 0.00 0.00 0.00 95 1012.8
20240518093021 15 68 0.0 0.0 0.00 0.00 0.00 96 1013.2
20240518091521 15 81 0.0 0.0 0.00 0.00 0.00 95 1013.0
20240518090020 15 122 0.0 0.0 0.00 0.00 0.00 95 1012.8
20240518084519 15 112 0.0 0.0 0.00 0.00 0.00 95 1012.8
20240518083020 15 101 0.0 0.0 0.00 0.00 0.00 95 1012.9
20240518081515 15 90 0.0 0.0 0.00 0.00 0.00 94 1013.3
20240518080016 15 103 0.0 0.0 0.00 0.00 0.00 94 1013.6
20240518074524 15 145 0.0 0.0 0.00 0.00 0.00 94 1014.0
20240518073029 15 157 0.0 0.0 0.00 0.00 0.00 94 1013.8
20240518071511 15 90 0.0 0.0 0.00 0.00 0.00 94 1013.7
20240518070010 15 143 0.0 0.0 0.00 0.00 0.00 94 1013.7
20240518064512 15 124 0.0 0.0 0.00 0.00 0.00 94 1013.8
20240518063006 15 124 0.0 0.0 0.00 0.00 0.00 94 1014.0
20240518061506 15 107 0.0 0.0 0.00 0.00 0.00 94 1013.9
20240518060005 15 116 0.0 0.0 0.00 0.00 0.00 94 1013.9
20240518054513 15 122 0.0 0.0 0.00 0.00 0.00 94 1014.0
20240518053002 15 43 0.0 0.0 0.00 0.00 0.00 94 1014.2
20240518051601 15 70 0.0 0.0 0.00 0.00 0.00 93 1014.2
20240518050057 15 101 0.0 0.0 0.00 0.00 0.00 93 1014.6
20240518044606 15 84 0.0 0.0 0.00 0.00 0.00 93 1014.7
20240518043054 15 103 0.0 0.0 0.00 0.00 0.00 93 1015.1
20240518041607 15 103 0.0 0.0 0.00 0.00 0.00 93 1015.2
20240518040052 15 105 0.0 0.0 0.00 0.00 0.00 93 1015.0
20240518034551 15 136 0.0 0.0 0.00 0.00 0.00 93 1014.8
20240518033053 15 136 0.0 0.0 0.00 0.00 0.00 93 1015.0
20240518031551 15 60 0.0 0.0 0.00 0.00 0.00 92 1015.0
20240518030049 15 60 0.0 0.0 0.00 0.00 0.00 92 1015.0
20240518024556 15 60 0.0 0.0 0.00 0.00 0.00 92 1014.9
20240518023046 15 117 0.0 0.0 0.00 0.00 0.00 92 1014.9
20240518021546 15 117 0.0 0.0 0.00 0.00 0.00 91 1014.7
20240518020046 15 117 0.0 0.0 0.00 0.00 0.00 91 1014.6
20240518014546 16 32 0.0 0.0 0.00 0.00 0.00 91 1014.7
20240518013047 16 96 0.0 0.0 0.00 0.00 0.00 91 1014.7
20240518011549 16 96 0.0 0.0 0.00 0.00 0.00 91 1014.6
20240518010044 16 96 0.0 0.0 0.00 0.00 0.00 90 1014.3
20240518004543 16 89 0.0 0.0 0.00 0.00 0.00 90 1014.3
20240518003049 16 53 0.0 0.0 0.00 0.00 0.00 89 1014.3
20240518001546 16 91 0.0 0.0 0.00 0.00 0.00 89 1014.4
20240518000040 16 80 0.0 8.0 0.00 0.00 0.00 89 1014.3
20240517234544 16 131 0.0 0.0 0.00 0.00 0.00 89 1014.3
20240517233046 16 50 0.0 8.0 0.00 0.00 0.00 88 1014.2
20240517231539 17 22 0.0 1.6 0.00 0.00 0.00 87 1014.1
20240517230041 17 103 0.0 0.0 0.00 0.00 0.00 87 1013.9
20240517224540 17 46 0.0 3.2 0.00 0.00 0.00 86 1013.6
20240517223052 18 67 0.0 6.4 0.00 0.00 0.00 84 1013.5
20240517221538 18 102 0.0 8.0 0.00 0.00 0.00 82 1013.6
20240517220035 19 351 1.6 9.7 0.00 0.00 0.00 80 1013.8
20240517214538 19 17 0.0 8.0 0.00 0.00 0.00 78 1013.5
20240517213035 20 72 0.0 0.0 0.00 0.00 0.00 78 1014.0
20240517211534 20 75 0.0 8.0 0.00 0.00 0.00 78 1014.0
20240517210039 20 72 0.0 0.0 0.00 0.00 0.00 77 1014.0
20240517204535 20 15 0.0 9.7 0.00 0.00 0.00 77 1013.8
20240517203033 20 359 1.6 12.9 0.00 0.00 0.00 74 1013.9
20240517201531 20 23 0.0 6.4 0.00 0.00 0.00 76 1013.7
20240517200041 21 79 0.0 1.6 0.00 0.00 0.00 77 1014.0
20240517194530 21 38 0.0 0.0 0.00 0.00 0.00 75 1014.2
20240517193026 20 41 0.0 6.4 0.00 0.00 0.00 77 1013.9